Starlink 35626

operational
NORAD ID: 66233 Int'l Des: 2025-244 Owner: SPXS Country: US Constellation: starlink
NOTLE

Starlink 35626について

説明を読み込み中...

リアルタイム位置

3D地球を読み込み中...

次回通過

高度履歴

Altitude vs Time

uPlot chart will show altitude changes over time

軌道要素

1 66233U 25244AD 25350.05615352 .00037642 00000-0 94619-3 0 9993
2 66233 53.1602 259.8787 0001070 77.7681 282.3443 15.39626663 8831
Epoch: Dec 16, 2025 • Age: 22 hours

現在のステータス

高度 450.9 km
速度 7.65 km/s
衛星直下点 44.54°N, 134.48°W
打ち上げ日 Oct 28, 2025
運用期間 0.1 years
タイプ internet

技術仕様

分類 Payload
質量 575.00 kg
乾燥質量 530.00 kg
総質量 575.00 kg
長さ 0.30 m
直径 4.10 m
スパン 29.00 m
形状 Box + pan
製造者 SPXS
バスタイプ Starlink V2MO
フェーズステータス In Orbit
所有者/国 SPXS/US

大規模コンステレーション

Loading constellations...